Location: Bats
(43.6587°N, 0.4584°W)
Time: 10:48:14
(UTC+00:00)

Cosmos 2341 Rocket - Pass Details

Date: 12 January 2026
Orbit: 967 x 1004 km, 82.9° (Epoch: 10 February)

Event Time Altitude Azimuth Distance (km) Brightness Sun altitude
Rises 17:55:25 0° 353° (N) 3,725 6.9 -12.1°
Reaches altitude 10° 17:57:59 10° 354° (N) 2,767 6.3 -12.6°
Maximum altitude 18:04:20 78° 81° (E) 1,012 4.0 -13.7°
Drops below altitude 10° 18:10:36 10° 168° (SSE) 2,723 6.4 -14.7°
Sets 18:13:05 0° 170° (S) 3,661 7.1 -15.2°
